This is the latest recevied weather packets stored in our database for station/object KC8YYF. If no packets are shown the sender has not sent any weather packets the latest 10 day(s).
| Time | Temp. | Humidity | Pressure | Rain* | Wind** | Luminosity | Snow |
|---|---|---|---|---|---|---|---|
| 1777565730 | 10° C | 71% | 1015.6 hPa | 0 mm | - | 213 W/m² | - |
| 1777565427 | 10° C | 71% | 1015.9 hPa | 0 mm | - | 352 W/m² | - |
| 1777565123 | 9.44° C | 74% | 1015.9 hPa | 0 mm | - | 257 W/m² | - |
| 1777564820 | 8.33° C | 74% | 1015.7 hPa | 0 mm | - | 165 W/m² | - |
| 1777564515 | 8.33° C | 75% | 1015.8 hPa | 0 mm | - | 42 W/m² | - |
| 1777564210 | 8.89° C | 73% | 1015.6 hPa | 0 mm | - | 64 W/m² | - |
| 1777563906 | 8.89° C | 75% | 1015.5 hPa | 0 mm | - | 500 W/m² | - |
| 1777563603 | 8.33° C | 75% | 1015.6 hPa | 0 mm | - | 218 W/m² | - |
| 1777563303 | 8.33° C | 80% | 1015.5 hPa | 0 mm | - | 113 W/m² | - |
| 1777562999 | 7.78° C | 80% | 1015.6 hPa | 0 mm | - | 45 W/m² | - |
| 1777562695 | 7.78° C | 81% | 1015.5 hPa | 0 mm | - | 28 W/m² | - |
| 1777562394 | 7.78° C | 80% | 1015.5 hPa | 0 mm | - | 27 W/m² | - |
| 1777562091 | 7.78° C | 80% | 1015.5 hPa | 0 mm | - | 44 W/m² | - |
| 1777561788 | 7.78° C | 80% | 1015.8 hPa | 0 mm | - | 45 W/m² | - |
| 1777561483 | 7.78° C | 80% | 1015.4 hPa | 0 mm | - | 55 W/m² | - |
| 1777561179 | 7.78° C | 78% | 1015.2 hPa | 0 mm | - | 76 W/m² | - |
| 1777560873 | 7.78° C | 79% | 1015.3 hPa | 0 mm | - | 229 W/m² | - |
| 1777560572 | 7.78° C | 82% | 1015.2 hPa | 0 mm | - | 95 W/m² | - |
| 1777560269 | 7.78° C | 80% | 1015.1 hPa | 0 mm | - | 82 W/m² | - |
| 1777559966 | 7.78° C | 78% | 1015.4 hPa | 0 mm | - | 456 W/m² | - |
| 1777559661 | 7.78° C | 80% | 1015.3 hPa | 0 mm | - | 143 W/m² | - |
| 1777559359 | 7.78° C | 82% | 1015.1 hPa | 0 mm | - | 285 W/m² | - |
| 1777559056 | 7.22° C | 81% | 1015.2 hPa | 0 mm | - | 95 W/m² | - |
| 1777558750 | 7.22° C | 82% | 1015.2 hPa | 0 mm | - | 89 W/m² | - |
| 1777558446 | 7.22° C | 83% | 1015.1 hPa | 0 mm | - | 111 W/m² | - |
* Rain latest hour (hover to see other rain measurements)
** Current wind speed in m/s (hover to see current wind gust speed)